Content
SEND FEEDBACK

Daily
Averages
Monthly
Summary
Spain

MADRID, SPAIN


Home > Europe > Spain
Elevation: 581 meters     Latitude: 40 27N     Longitude: 003 33W

WEATHER
 
SELECT A DAY
Number of Records: 302,790;   Date Range: 7/1/96 - 7/23/14
 
SHARE

PRINT THIS DATA

[ ← Previous Day ]
WEATHER ALMANAC - 4 FEBRUARY, 2013
[ Next Day → ]
[ °F ]   °C
Weather ElementAverageHighLow
Temperature6.2 °C15 °C (3:30 pm)-1.1 °C (7:00 am)
Dewpoint-0.1 °C4 °C (4:30 pm)-3.9 °C (7:00 am)
Humidity65.4 %87 % (10:00 am)35 % (1:00 pm)
Barometer1029.8 hPa1034.2 hPa (7:00 am)1028.1 hPa (3:30 pm)
Wind Speed4.7 km/h11.1 km/h (7:00 pm)
Wind Gust22.2 km/h (3:00 pm)
Weather ElementAverage
Visibility13.4 km
Wind DirectionESE (115.7 °)

Weather ElementTotal
Precipitation---
Heating Degree Days11.4 (Base 18.3)
Averaged from 46 records on 4 February, 2013
WEATHER CONDITIONS BREAKOUT
WIND DIRECTION BREAKOUT
WEATHER BY HOUR - 4 FEBRUARY, 2013
[ °F ]   °C
Local TimeTemperatureDewpointHumidityBarometerVisibilityWind DirectionWind SpeedGust SpeedPrecipitationEventsConditions
12:30 AM3 °C-2 °C70 %1030.1 hPaNNE (20°)5.6 km/hClear
1:00 AM2.2 °C-3.3 °C57 %1032.8 hPa30.6 kmWest (280°)3.7 km/hClear
1:00 AM2 °C-2 °C75 %1030.1 hPaVariable3.7 km/hClear
1:30 AM2 °C-2 °C75 %1030.1 hPaCalmClear
2:00 AM3 °C-2 °C70 %1030.1 hPaVariable1.9 km/hClear
2:30 AM3 °C-2 °C70 %1029.1 hPaWest (280°)3.7 km/hClear
3:00 AM1 °C-2 °C81 %1030.1 hPaVariable3.7 km/hClear
3:30 AM2 °C-2 °C75 %1030.1 hPaSSW (210°)9.3 km/hClear
4:00 AM2 °C-3 °C70 %1030.1 hPaSW (230°)9.3 km/hClear
4:30 AM2 °C-2 °C75 %1030.1 hPaSW (230°)7.4 km/hClear
5:00 AM1 °C-3 °C75 %1030.1 hPaEast (90°)5.6 km/hClear
5:30 AM0 °C-3 °C80 %1030.1 hPaSE (130°)5.6 km/hClear
6:00 AM-1 °C-3 °C86 %1030.1 hPaENE (60°)3.7 km/hClear
6:30 AM0 °C-3 °C80 %1030.1 hPaWNW (300°)3.7 km/hClear
7:00 AM-1.1 °C-3.9 °C73 %1034.2 hPa30.6 kmSouth (170°)3.7 km/h
7:00 AM-1 °C-3 °C86 %1030.1 hPaVariable3.7 km/hClear
7:30 AM-1 °C-3 °C86 %1030.1 hPaSE (140°)5.6 km/hClear
8:00 AM-1 °C-3 °C86 %1031.2 hPaCalmClear
8:30 AM-1 °C-3 °C86 %1031.2 hPaVariable3.7 km/hClear
9:00 AM0 °C-3 °C80 %1031.2 hPa10 kmVariable1.9 km/hPartly Cloudy
9:30 AM0 °C-3 °C80 %1031.2 hPa10 kmVariable1.9 km/hPartly Cloudy
10:00 AM0 °C-2 °C87 %1031.2 hPa10 kmNorth (360°)3.7 km/hScattered Clouds
12:30 PM9 °C0 °C54 %1031.2 hPa10 kmVariable3.7 km/hScattered Clouds
1:00 PM11 °C1 °C50 %1031.2 hPa10 kmWSW (250°)1.9 km/hScattered Clouds
1:00 PM11.1 °C0 °C35 %1031.2 hPa12.9 kmSSW (200°)3.7 km/hPartly Cloudy
1:30 PM11 °C1 °C50 %1030.1 hPa10 kmENE (70°)3.7 km/hPartly Cloudy
2:00 PM12 °C0 °C44 %1030.1 hPa10 kmSSW (200°)5.6 km/hPartly Cloudy
2:30 PM13 °C2 °C47 %1029.1 hPa10 kmSW (220°)5.6 km/hPartly Cloudy
3:00 PM13 °C1 °C44 %1029.1 hPa10 kmVariable3.7 km/h22.2 km/hPartly Cloudy
3:30 PM15 °C2 °C42 %1028.1 hPa10 kmVariable3.7 km/hPartly Cloudy
4:00 PM15 °C3 °C45 %1028.1 hPa10 kmSSW (210°)1.9 km/hPartly Cloudy
4:30 PM15 °C4 °C48 %1028.1 hPa10 kmVariable3.7 km/hPartly Cloudy
5:00 PM14 °C3 °C48 %1028.1 hPa10 kmVariable3.7 km/hPartly Cloudy
5:30 PM14 °C4 °C51 %1028.1 hPa10 kmSSE (160°)5.6 km/hPartly Cloudy
6:00 PM14 °C3 °C48 %1028.1 hPa10 kmSouth (170°)7.4 km/hPartly Cloudy
6:30 PM12 °C3 °C54 %1028.1 hPaSE (140°)7.4 km/hClear
7:00 PM10.6 °C2.2 °C46 %1028.4 hPa30.6 kmSouth (170°)11.1 km/h
7:00 PM13 °C3 °C51 %1028.1 hPaSouth (170°)9.3 km/hClear
7:30 PM11 °C3 °C58 %1028.1 hPaSouth (190°)7.4 km/hClear
8:00 PM10 °C3 °C62 %1028.1 hPaSSW (200°)7.4 km/hClear
8:30 PM11 °C3 °C58 %1028.1 hPaSW (230°)9.3 km/hClear
9:00 PM11 °C3 °C58 %1028.1 hPaSW (230°)5.6 km/hClear
9:30 PM7 °C3 °C76 %1028.1 hPaVariable3.7 km/hClear
10:30 PM6 °C2 °C76 %1028.1 hPaCalmClear
11:00 PM5 °C2 °C81 %1028.1 hPaNorth (10°)5.6 km/hClear
11:30 PM5 °C2 °C81 %1028.1 hPaVariable3.7 km/hClear
Hourly data recorded from LETO, located 0 kilometers away from Madrid, Spain







STORIES FROM OUR PARTNERS